THORAD AGENA D DEB, 4733

Orbit data source: Space-Track

THORAD AGENA D DEB, 4733 is space debris in SSO originally from a launch on Wed, 08 Apr 1970 UTC launched from the Air Force Western Test Range (AFWTR). Debris objects in space refer to the collection of defunct objects orbiting the Earth. Examples of debris include non-operational satellites, rocket bodies, and fragments generated from explosions, collisions, or faulty payload assembly.

Loading next visibility...
Identifier
4733, 1970-025CG
Orbit
SSO
Country
Flag of USUS
Related business
Manufacturer
Unknown
Mission
Spacecraft
Bus & Motor
Unknown
Mass
Unknown
Launch date (UTC)
1970-04-08 (56 years ago)
Launch vehicle
Unknown
Launch site
Air Force Western Test Range (AFWTR)
Object type
Payload
Rocket body
Debris
Shape & HBR
Unknown shape, 0.1 m
Radar Cross Section
Small (<0.1 m²)

Expand to show TLE details & history
Last TLE update: 10 hours ago

TLE from 10 hours ago
0 THORAD AGENA D DEB
1  4733U 70025CG  26124.98836377  .00003656  00000-0  60745-3 0  9992
2  4733  99.9027 144.6112 0091555  60.2018 300.8246 14.68227612899105
Epoch: 2026-05-04T23:43Z
TLE epoch observation values (Epoch: 2026-05-04T23:43:14.629Z)
Latitude
-0.00009°
Longitude
-74.0694°
Altitude
637.052 km
Speed
7.557 km/s
True Right ascension
09h 38m 26s
True Declination
0° 00' 00"
Sunlit
Object was in daylight at epoch
Visualization orbit readout
Latitude
Unknown
Longitude
Unknown
Altitude
Unknown
Speed
Unknown
Apparent Right ascension
Unknown
Apparent Declination
Unknown
Sunlit
N/A
Visualization observer readout
Local Sidereal Time
17:18:46
Azimuth
Unknown
Elevation
Unknown
Doppler factor
Unknown
Orbital elements
Apogee altitude
728.362 km
Perigee altitude
599.415 km
Semi-major axis
7,042.025 km
Eccentricity
0.00916
Inclination
99.9027°
RAAN
144.6112°
Arg. of periapsis
60.2018°
True anomaly
299.91838°
Mean anomaly
300.8246°
Eccentric anomaly
300.37202°
Mean motion
3.6728 °/min
Orbital period
98.02 mins
BSTAR
0.00060745

Documentation

Showing up to 5 results
|